Terminal Aerodrome Forecast
Issued by NWS

Current Version | Previous Version | Graphics & Text | Print | Product List | Glossary On
Versions: 1 2 3 4 5 6 7 8 9 10 11 12 13 14 15 16 17 18 19 20 21 22 23 24 25 26 27 28 29 30 31 32 33 34 35 36 37 38 39 40 41 42 43 44 45
000
FTUS41 KRNK 090926 AAB
TAFLWB
TAF AMD
KLWB 090926Z 0909/1006 20006KT P6SM VCSH SCT014 OVC022
      TEMPO 0909/0911 4SM BR OVC003
     FM091100 25003KT P6SM VCSH BKN025
     FM091800 24005KT P6SM VCTS OVC025CB
     FM092300 27003KT P6SM SCT035 BKN100=

USA.gov is the U.S. government's official web portal to all federal, state and local government web resources and services.